TimeEDT,TemperatureF,Dew PointF,Humidity,Sea Level PressureIn,VisibilityMPH,Wind Direction,Wind SpeedMPH,Gust SpeedMPH,PrecipitationIn,Events,Conditions,WindDirDegrees,DateUTC
12:53 AM,39.0,33.1,79,29.96,10.0,SW,5.8,-,N/A,,Clear,230,2013-05-12 04:53:00
1:53 AM,39.0,33.1,79,29.96,10.0,WSW,6.9,-,N/A,,Clear,240,2013-05-12 05:53:00
2:53 AM,39.0,33.1,79,29.96,10.0,WSW,6.9,-,N/A,,Clear,250,2013-05-12 06:53:00
3:53 AM,37.9,33.1,83,29.94,10.0,WSW,6.9,-,N/A,,Clear,250,2013-05-12 07:53:00
4:53 AM,39.0,32.0,76,29.94,10.0,West,10.4,-,N/A,,Clear,260,2013-05-12 08:53:00
5:53 AM,37.9,32.0,79,29.94,10.0,West,9.2,-,N/A,,Clear,260,2013-05-12 09:53:00
6:53 AM,37.9,33.1,83,29.95,10.0,West,12.7,-,N/A,,Clear,270,2013-05-12 10:53:00
7:53 AM,41.0,33.1,73,29.96,10.0,West,17.3,24.2,N/A,,Clear,280,2013-05-12 11:53:00
8:16 AM,41.0,30.2,65,29.96,10.0,West,18.4,25.3,N/A,,Mostly Cloudy,280,2013-05-12 12:16:00
8:53 AM,43.0,30.0,60,29.98,10.0,WNW,19.6,26.5,N/A,,Scattered Clouds,300,2013-05-12 12:53:00
9:53 AM,45.0,28.9,53,29.99,10.0,WNW,24.2,32.2,N/A,,Scattered Clouds,290,2013-05-12 13:53:00
10:53 AM,46.0,28.0,50,30.00,10.0,WNW,20.7,28.8,N/A,,Overcast,300,2013-05-12 14:53:00
11:53 AM,46.0,28.0,50,30.01,10.0,West,21.9,27.6,N/A,,Overcast,280,2013-05-12 15:53:00
12:53 PM,48.0,28.9,48,30.02,10.0,West,15.0,26.5,N/A,,Overcast,280,2013-05-12 16:53:00
1:53 PM,48.9,27.0,43,30.03,10.0,WNW,23.0,28.8,N/A,,Mostly Cloudy,300,2013-05-12 17:53:00
2:53 PM,50.0,27.0,41,30.02,10.0,West,19.6,27.6,N/A,,Overcast,260,2013-05-12 18:53:00
3:53 PM,51.1,26.1,38,30.02,10.0,West,20.7,27.6,N/A,,Mostly Cloudy,270,2013-05-12 19:53:00
4:53 PM,50.0,26.1,39,30.03,10.0,West,23.0,32.2,N/A,,Overcast,280,2013-05-12 20:53:00
5:53 PM,48.9,28.0,44,30.05,10.0,WNW,23.0,28.8,N/A,,Overcast,290,2013-05-12 21:53:00
6:53 PM,46.9,25.0,42,30.06,10.0,West,20.7,29.9,N/A,,Overcast,280,2013-05-12 22:53:00
7:53 PM,46.0,23.0,40,30.08,10.0,WNW,23.0,27.6,N/A,,Mostly Cloudy,290,2013-05-12 23:53:00
8:53 PM,44.1,24.1,45,30.09,10.0,WNW,18.4,24.2,N/A,,Scattered Clouds,300,2013-05-13 00:53:00
9:53 PM,39.9,26.1,58,30.12,10.0,NW,8.1,-,N/A,,Clear,310,2013-05-13 01:53:00
10:53 PM,39.0,25.0,57,30.13,10.0,NW,8.1,-,N/A,,Clear,310,2013-05-13 02:53:00
11:53 PM,37.0,25.0,62,30.13,10.0,West,5.8,-,N/A,,Clear,260,2013-05-13 03:53:00